THORAD DELTA 1 DEB, 8173

Orbit data source: Space-Track

THORAD DELTA 1 DEB, 8173 is space debris in SSO originally from a launch on Fri, 15 Nov 1974 UTC launched from the Air Force Western Test Range (AFWTR). Debris objects in space refer to the collection of defunct objects orbiting the Earth. Examples of debris include non-operational satellites, rocket bodies, and fragments generated from explosions, collisions, or faulty payload assembly.

Loading next visibility...
THORAD DELTA 1 DEB details
Identifier
8173, 1974-089AP
Orbit
SSO
Last TLE update23 hours ago
Origin
Flag of USGSFC (US)
ManufacturerUnknown
MissionSpacecraft
Bus & MotorUnknown
MassUnknown
Launch date (UTC)
1974-11-15 (50 years ago)
Launch vehicleUnknown
Launch site
Air Force Western Test Range (AFWTR)
Object type
Payload
Rocket body
Debris
Shape & HBRUnknown
Radar Cross SectionSmall (<0.1 m²)

Expand to show TLE details & history

TLE from 23 hours ago
0 THORAD DELTA 1 DEB
1 08173U 74089AP  24360.49316282  .00000168  00000-0  13371-2 0  9999
2 08173 101.9271 329.4981 0108994  72.4113  47.3975 12.51776427287584
Epoch: 2024-12-25T11:50Z
Definitive object data (Epoch: 2024-12-25T11:50:09.267Z)
Latitude57.33721°
Longitude-103.38772°
Altitude1,409.189 km
Speed7.187 km/s
True Right ascension11h 14m 32s
True Declination57° 11' 38"
Sunlit
Object was in daylight at TLE epoch
Visualization TLE readout
Latitude25.20932°
Longitude-115.8804°
Altitude1,449.464 km
Speed7.144 km/s
Apparent Right ascension10h 27m 57s
Apparent Declination-19° 00' 24"
Sunlit
Object is in daylight
Visualization observer readout
Local Sidereal Time10:23:03
Azimuth178.648° S
Elevation31.066°
Doppler factor1
Orbital elements
Apogee altitude1,540 km
Perigee altitude1,369.256 km
Semi-major axis7,832.765 km
Eccentricity0.0108994
Inclination101.9271°
RAAN329.4981°
Arg. of periapsis72.4113°
True anomaly48.32535°
Mean anomaly47.3975°
Eccentric anomaly47.86057°
Mean motion3.13091 °/min
BSTAR0.0013371
Orbital period114.98 mins
Loading maneuver chart data...

THORAD DELTA 1 DEB Visibility forecast

Observer location: undefined°, undefined

Span
Click to sort rows by Start time (UTC) header in descending order
Start Az.
Max El. time (UTC)
Max El. Az.
Max El.
End time (UTC)
End Az.
11 mins2024-12-26 12:44:46.960Z349.644° N2024-12-26 12:49:46.960Z302.278° NW25.387°2024-12-26 12:55:46.960Z251.379° W
8 mins2024-12-26 20:01:46.960Z78.961° E2024-12-26 20:04:46.960Z52.5° ENE18.183°2024-12-26 20:09:46.960Z11.739° NNE
14 mins2024-12-26 21:49:46.960Z158.207° S2024-12-26 21:56:46.960Z58.272° ENE44.948°2024-12-26 22:03:46.960Z343.328° N
8 mins2024-12-26 23:46:46.960Z236.943° WSW2024-12-26 23:50:46.960Z270.307° WNW16.572°2024-12-26 23:54:46.960Z302.7° NW
12 mins2024-12-27 09:53:46.960Z47.076° ENE2024-12-27 09:58:46.960Z92.843° ESE25.584°2024-12-27 10:05:46.960Z152.527° SSE
|